When you browse on this site, cookies collect data to enhance your experience and personalize the content and advertising you see.
Visit our Privacy Policy to learn more. By continuing to use the site, you agree to this use of cookies and data.
  • In Netherlands
  • List of Countries
  • For 7 days
  • Water Temperature
  • Satellite Maps
  • Weather Map
  • Weather Widgets
  • user-avatar
    Login

    Hourly Weather Trzebiatów

    Today, 25 April, Thursday

    Time Temperature Precipitation Wind Pressure Humidity
    00:00 +13°C° 0 mm 5 mps 757 mmHg 83%
    01:00 +12°C° 0 mm 4 mps 756 mmHg 86%
    02:00 +12°C° 0 mm 4 mps 756 mmHg 88%
    03:00 +12°C° 0 mm 4 mps 756 mmHg 89%
    04:00 +12°C° 0 mm 4 mps 756 mmHg 91%
    05:00 +13°C° 0 mm 4 mps 757 mmHg 89%
    06:00 +14°C° 0 mm 4 mps 757 mmHg 86%
    07:00 +15°C° 0 mm 4 mps 757 mmHg 84%
    08:00 +17°C° 0 mm 4 mps 757 mmHg 81%
    09:00 +18°C° 0 mm 4 mps 758 mmHg 77%
    10:00 +20°C° 0 mm 3 mps 758 mmHg 74%
    11:00 +20°C° 0 mm 3 mps 758 mmHg 68%
    12:00 +21°C° 0 mm 3 mps 759 mmHg 62%
    13:00 +22°C° 0 mm 3 mps 759 mmHg 56%
    14:00 +22°C° 0 mm 3 mps 759 mmHg 60%
    15:00 +21°C° 0 mm 4 mps 759 mmHg 64%
    16:00 +20°C° 0 mm 4 mps 759 mmHg 69%
    17:00 +18°C° 0 mm 3 mps 759 mmHg 74%
    18:00 +16°C° 0 mm 3 mps 759 mmHg 80%
    19:00 +13°C° 0 mm 3 mps 759 mmHg 86%
    20:00 +13°C° 0 mm 3 mps 759 mmHg 85%
    21:00 +12°C° 0 mm 3 mps 759 mmHg 84%
    22:00 +11°C° 0 mm 3 mps 760 mmHg 84%
    23:00 +11°C° 0 mm 3 mps 759 mmHg 83%

    Tomorrow, 26 April, Friday

    Time Temperature Precipitation Wind Pressure Humidity
    00:00 +11°C° 0 mm 3 mps 759 mmHg 82%
    01:00 +11°C° 0 mm 4 mps 759 mmHg 82%
    02:00 +11°C° 0 mm 4 mps 759 mmHg 83%
    03:00 +11°C° 0 mm 4 mps 758 mmHg 85%
    04:00 +11°C° 0 mm 4 mps 758 mmHg 86%
    05:00 +12°C° 0 mm 4 mps 758 mmHg 85%
    06:00 +13°C° 0 mm 4 mps 757 mmHg 83%
    07:00 +15°C° 0 mm 4 mps 757 mmHg 82%
    08:00 +18°C° 0 mm 4 mps 756 mmHg 75%
    09:00 +20°C° 0 mm 4 mps 756 mmHg 68%
    10:00 +23°C° 0 mm 4 mps 755 mmHg 61%
    11:00 +23°C° 0 mm 4 mps 755 mmHg 57%
    12:00 +25°C° 0 mm 4 mps 755 mmHg 52%
    13:00 +26°C° 0 mm 4 mps 754 mmHg 47%
    14:00 +25°C° 0 mm 4 mps 754 mmHg 51%
    15:00 +23°C° 0 mm 4 mps 754 mmHg 55%
    16:00 +22°C° 0 mm 4 mps 754 mmHg 59%
    17:00 +21°C° 0 mm 4 mps 754 mmHg 63%
    18:00 +20°C° 0 mm 4 mps 753 mmHg 67%
    19:00 +18°C° 0 mm 4 mps 753 mmHg 70%
    20:00 +18°C° 0.2 mm 3 mps 754 mmHg 72%
    21:00 +17°C° 0.2 mm 3 mps 754 mmHg 75%
    22:00 +17°C° 0.2 mm 2 mps 754 mmHg 77%
    23:00 +14°C° 0.6 mm 4 mps 754 mmHg 83%

    Day after tomorrow, 27 April, Saturday

    Time Temperature Precipitation Wind Pressure Humidity
    00:00 +13°C° 0.6 mm 5 mps 754 mmHg 89%
    01:00 +10°C° 0.6 mm 6 mps 754 mmHg 95%
    02:00 +10°C° 0.3 mm 7 mps 754 mmHg 94%
    03:00 +10°C° 0.3 mm 7 mps 755 mmHg 93%
    04:00 +10°C° 0.3 mm 8 mps 755 mmHg 92%
    05:00 +9°C° 0.1 mm 8 mps 755 mmHg 92%
    06:00 +9°C° 0.1 mm 8 mps 755 mmHg 91%
    07:00 +7°C° 0.1 mm 8 mps 756 mmHg 91%
    08:00 +8°C° 0.1 mm 7 mps 756 mmHg 89%
    09:00 +9°C° 0.1 mm 7 mps 756 mmHg 87%
    10:00 +9°C° 0.1 mm 7 mps 757 mmHg 85%
    11:00 +10°C° 0 mm 7 mps 757 mmHg 76%
    12:00 +13°C° 0 mm 6 mps 757 mmHg 66%
    13:00 +14°C° 0 mm 6 mps 757 mmHg 56%
    14:00 +14°C° 0 mm 5 mps 757 mmHg 57%
    15:00 +14°C° 0 mm 4 mps 757 mmHg 58%
    16:00 +14°C° 0 mm 4 mps 757 mmHg 58%
    17:00 +13°C° 0 mm 3 mps 757 mmHg 63%
    18:00 +12°C° 0 mm 2 mps 757 mmHg 69%
    19:00 +10°C° 0 mm 2 mps 757 mmHg 74%
    20:00 +10°C° 0 mm 2 mps 758 mmHg 74%
    21:00 +10°C° 0 mm 1 mps 758 mmHg 73%
    22:00 +10°C° 0 mm 1 mps 758 mmHg 73%
    23:00 +10°C° 0 mm 1 mps 758 mmHg 73%

    28 April, Sunday

    Time Temperature Precipitation Wind Pressure Humidity
    00:00 +10°C° 0 mm 1 mps 759 mmHg 73%
    01:00 +10°C° 0 mm 1 mps 759 mmHg 73%
    02:00 +10°C° 0 mm 1 mps 759 mmHg 73%
    03:00 +9°C° 0 mm 2 mps 759 mmHg 74%
    04:00 +9°C° 0 mm 2 mps 759 mmHg 74%
    05:00 +9°C° 0 mm 3 mps 759 mmHg 74%
    06:00 +10°C° 0 mm 3 mps 760 mmHg 74%
    07:00 +11°C° 0 mm 4 mps 760 mmHg 75%
    08:00 +12°C° 0 mm 4 mps 760 mmHg 72%
    09:00 +12°C° 0 mm 4 mps 761 mmHg 70%
    10:00 +13°C° 0 mm 5 mps 761 mmHg 67%
    11:00 +13°C° 0 mm 5 mps 761 mmHg 67%
    12:00 +13°C° 0 mm 5 mps 761 mmHg 67%
    13:00 +13°C° 0 mm 5 mps 761 mmHg 67%
    14:00 +12°C° 0 mm 5 mps 762 mmHg 70%
    15:00 +10°C° 0 mm 5 mps 762 mmHg 72%
    16:00 +10°C° 0 mm 6 mps 762 mmHg 74%
    17:00 +9°C° 0.1 mm 6 mps 762 mmHg 80%
    18:00 +9°C° 0.1 mm 5 mps 762 mmHg 85%
    19:00 +8°C° 0.1 mm 5 mps 762 mmHg 91%
    20:00 +7°C° 0.5 mm 5 mps 762 mmHg 92%
    21:00 +7°C° 0.5 mm 5 mps 763 mmHg 94%
    22:00 +6°C° 0.5 mm 5 mps 763 mmHg 95%
    23:00 +6°C° 0.5 mm 4 mps 763 mmHg 96%

    29 April, Monday

    Time Temperature Precipitation Wind Pressure Humidity
    00:00 +6°C° 0.5 mm 4 mps 763 mmHg 96%
    01:00 +7°C° 0.5 mm 3 mps 763 mmHg 97%
    02:00 +7°C° 0.4 mm 4 mps 763 mmHg 97%
    03:00 +7°C° 0.4 mm 4 mps 763 mmHg 97%
    04:00 +7°C° 0.4 mm 5 mps 763 mmHg 97%
    05:00 +8°C° 0.1 mm 5 mps 763 mmHg 94%
    06:00 +9°C° 0.1 mm 6 mps 763 mmHg 92%
    07:00 +9°C° 0.1 mm 7 mps 763 mmHg 90%
    08:00 +10°C° 0 mm 8 mps 763 mmHg 85%
    09:00 +11°C° 0 mm 8 mps 764 mmHg 80%
    10:00 +12°C° 0 mm 8 mps 764 mmHg 74%
    11:00 +12°C° 0 mm 9 mps 764 mmHg 69%
    12:00 +13°C° 0 mm 9 mps 764 mmHg 64%
    13:00 +13°C° 0 mm 10 mps 764 mmHg 59%
    14:00 +12°C° 0 mm 10 mps 764 mmHg 59%
    15:00 +12°C° 0 mm 10 mps 764 mmHg 58%
    16:00 +11°C° 0 mm 10 mps 764 mmHg 58%
    17:00 +9°C° 0 mm 10 mps 764 mmHg 60%
    18:00 +7°C° 0 mm 9 mps 765 mmHg 63%
    19:00 +6°C° 0 mm 9 mps 765 mmHg 66%
    20:00 +6°C° 0 mm 8 mps 765 mmHg 67%
    21:00 +5°C° 0 mm 7 mps 765 mmHg 69%
    22:00 +4°C° 0 mm 7 mps 766 mmHg 70%
    23:00 +4°C° 0 mm 6 mps 766 mmHg 73%

    30 April, Tuesday

    Time Temperature Precipitation Wind Pressure Humidity
    00:00 +4°C° 0 mm 6 mps 766 mmHg 76%
    01:00 +3°C° 0 mm 5 mps 766 mmHg 78%
    02:00 +3°C° 0 mm 5 mps 766 mmHg 81%
    03:00 +3°C° 0 mm 5 mps 766 mmHg 83%
    04:00 +3°C° 0 mm 5 mps 766 mmHg 85%
    05:00 +5°C° 0 mm 5 mps 766 mmHg 81%
    06:00 +6°C° 0 mm 5 mps 766 mmHg 76%
    07:00 +7°C° 0 mm 5 mps 766 mmHg 72%
    08:00 +8°C° 0 mm 5 mps 766 mmHg 66%
    09:00 +10°C° 0 mm 6 mps 766 mmHg 60%
    10:00 +11°C° 0 mm 6 mps 766 mmHg 54%
    11:00 +11°C° 0 mm 7 mps 766 mmHg 54%
    12:00 +12°C° 0 mm 7 mps 766 mmHg 54%
    13:00 +12°C° 0 mm 8 mps 766 mmHg 53%
    14:00 +12°C° 0 mm 8 mps 765 mmHg 54%
    15:00 +11°C° 0 mm 8 mps 765 mmHg 54%
    16:00 +11°C° 0 mm 8 mps 765 mmHg 55%
    17:00 +10°C° 0 mm 8 mps 765 mmHg 57%
    18:00 +7°C° 0 mm 8 mps 765 mmHg 60%
    19:00 +6°C° 0 mm 7 mps 765 mmHg 63%
    20:00 +5°C° 0 mm 7 mps 765 mmHg 65%
    21:00 +5°C° 0 mm 6 mps 765 mmHg 67%
    22:00 +4°C° 0 mm 6 mps 766 mmHg 69%
    23:00 +5°C° 0 mm 5 mps 766 mmHg 72%
    Show more